OBJECT AJ, 64560

Orbit data source: Space-Track

You're viewing an Uncataloged Satellite

Recently launched and/or uncataloged satellites may have evolving metadata. Metadata may include but not limited to: Owner, Maufacturer, Bus, Motor, and Mission.

OBJECT AJ, 64560 is a satellite in SSO that was launched on Mon, 23 Jun 2025 UTC via an FALCON 9 launch vehicle from the Air Force Western Test Range (AFWTR). Unknown objects in Earth's orbit typically refer to objects detected orbiting the Earth but have not yet been identified or cataloged. These objects could be anything from previously untracked satellites, spent rocket stages, debris from satellite collisions, or even natural meteoroids temporarily captured by Earth's gravity.

Loading next visibility...
Identifier
64560, 2025-135AJ
Orbit
SSO
Country
Flag of TBDTBD
Related business
None
Manufacturer
Unknown
Mission
Operational Commercial Communications
Bus & Motor
Unknown
Mass
Unknown
Launch date (UTC)
2025-06-23 (1 year ago)
Launch vehicle
FALCON 9
Launch site
Air Force Western Test Range (AFWTR)
Object type
Unknown
Shape & HBR
Box, 0.1 m
Radar Cross Section
0.080 m², Medium (>0.1 m² and < 1m²)

Expand to show TLE details & history
Last TLE update: 14 hours ago

TLE from 14 hours ago
0 OBJECT AJ
1 64560U 25135AJ  26171.28429227  .00003308  00000-0  30276-3 0  9995
2 64560  97.7746 285.9434 0000917 110.9842 249.1477 14.95650282 54375
Epoch: 2026-06-20T06:49Z
TLE epoch observation values (Epoch: 2026-06-20T06:49:22.852Z)
Latitude
-0°
Longitude
-84.90294°
Altitude
583.629 km
Speed
7.568 km/s
True Right ascension
19h 03m 46s
True Declination
0° 00' 00"
Sunlit
Object was in full shadow at epoch
Visualization orbit readout
Latitude
Unknown
Longitude
Unknown
Altitude
Unknown
Speed
Unknown
Apparent Right ascension
Unknown
Apparent Declination
Unknown
Sunlit
N/A
Visualization observer readout
Local Sidereal Time
07:22:58
Azimuth
Unknown
Elevation
Unknown
Doppler factor
Unknown
Orbital elements
Apogee altitude
578.007 km
Perigee altitude
576.732 km
Semi-major axis
6,955.506 km
Eccentricity
0.00009
Inclination
97.7746°
RAAN
285.9434°
Arg. of periapsis
110.9842°
True anomaly
249.13788°
Mean anomaly
249.1477°
Eccentric anomaly
249.14279°
Mean motion
3.74154 °/min
Orbital period
96.22 mins
BSTAR
0.00030276
Loading maneuver chart data...
Computing Atmospheric mass density...
Loading historical data...
Loading historical data...
Loading historical data...
Loading historical data...
Loading historical data...
Loading historical data...
Loading historical data...

Documentation

Showing up to 5 results
|